This is the latest recevied weather packets stored in our database for station/object KO4FR. If no packets are shown the sender has not sent any weather packets the latest 10 day(s).
| Time | Temp. | Humidity | Pressure | Rain* | Wind** | Luminosity | Snow |
|---|---|---|---|---|---|---|---|
| 1777048496 | 30° C | 27% | 1010.7 hPa | 0 mm | - | - | - |
| 1777048196 | 29.44° C | 29% | 1010.8 hPa | 0 mm | - | - | - |
| 1777047896 | 30° C | 28% | 1010.9 hPa | 0 mm | - | - | - |
| 1777047596 | 29.44° C | 28% | 1010.9 hPa | 0 mm | - | - | - |
| 1777047296 | 29.44° C | 28% | 1010.9 hPa | 0 mm | - | - | - |
| 1777046996 | 29.44° C | 27% | 1011 hPa | 0 mm | - | - | - |
| 1777046696 | 29.44° C | 28% | 1011.1 hPa | 0 mm | - | - | - |
| 1777046395 | 29.44° C | 28% | 1011.2 hPa | 0 mm | - | - | - |
| 1777046096 | 29.44° C | 30% | 1011.2 hPa | 0 mm | - | - | - |
| 1777045796 | 29.44° C | 29% | 1011.2 hPa | 0 mm | - | - | - |
| 1777045495 | 28.89° C | 30% | 1011.2 hPa | 0 mm | - | - | - |
| 1777045195 | 28.89° C | 31% | 1011.2 hPa | 0 mm | - | - | - |
| 1777044895 | 28.89° C | 29% | 1011.4 hPa | 0 mm | - | - | - |
| 1777044595 | 28.89° C | 32% | 1011.3 hPa | 0 mm | - | - | - |
| 1777044296 | 28.89° C | 33% | 1011.4 hPa | 0 mm | - | - | - |
| 1777043996 | 28.89° C | 34% | 1011.4 hPa | 0 mm | - | - | - |
| 1777043696 | 28.33° C | 37% | 1011.6 hPa | 0 mm | - | - | - |
| 1777043396 | 27.78° C | 37% | 1011.6 hPa | 0 mm | - | - | - |
| 1777043095 | 27.78° C | 37% | 1011.6 hPa | 0 mm | - | - | - |
| 1777042796 | 27.78° C | 37% | 1011.7 hPa | 0 mm | - | - | - |
| 1777042496 | 27.22° C | 38% | 1011.7 hPa | 0 mm | - | - | - |
| 1777042196 | 27.22° C | 40% | 1011.8 hPa | 0 mm | - | - | - |
| 1777041896 | 26.67° C | 42% | 1011.8 hPa | 0 mm | - | - | - |
| 1777041595 | 26.67° C | 45% | 1011.9 hPa | 0 mm | - | - | - |
| 1777041296 | 26.11° C | 44% | 1011.9 hPa | 0 mm | - | - | - |
* Rain latest hour (hover to see other rain measurements)
** Current wind speed in m/s (hover to see current wind gust speed)